Theta_e
319 314 308 309 298 295 291 296 296 298 301 303 307 314 314 316 315 304 329 334 339 341 345 346 347 349 350 350 350 350 349 348 347 347 347 346 345 344 343 343 343 341 340 341 339 338 336 334 336
315 314 310 303 294 289 291 295 298 301 303 305 308 311 313 313 323 326 327 338 341 342 344 344 345 348 349 349 348 348 348 348 347 346 345 346 345 344 344 343 343 341 338 338 338 337 338 336 338
308 312 304 298 291 289 291 294 299 301 302 302 305 317 316 318 324 327 331 337 341 341 343 343 344 348 348 348 348 347 347 347 345 345 344 344 343 343 342 344 343 343 338 337 339 340 338 336 338
303 306 300 294 292 296 294 299 300 300 301 303 308 312 319 318 326 330 334 338 339 340 342 341 344 348 348 347 347 347 346 346 345 343 343 342 342 340 339 338 339 340 338 336 336 340 339 334 334
307 302 293 289 291 293 297 300 301 300 300 301 302 310 313 313 327 332 332 333 337 338 340 341 343 346 347 347 347 346 346 346 345 344 343 342 342 341 339 337 336 337 337 335 338 342 341 338 337
298 296 289 287 290 294 297 299 300 298 299 301 301 309 311 309 317 322 332 330 334 337 339 341 337 341 344 345 346 346 345 345 345 344 343 342 343 343 341 339 338 336 336 336 337 341 339 338 337
296 290 288 288 290 292 297 299 296 297 296 298 301 306 307 303 307 311 330 331 333 338 339 340 340 339 336 339 341 342 343 343 343 343 342 341 339 339 340 339 338 338 338 338 339 340 337 338 339
299 295 291 290 289 291 297 296 298 298 299 302 303 300 301 303 306 310 328 329 331 335 336 337 338 339 339 339 333 335 337 338 339 338 336 334 333 334 334 332 335 338 338 338 338 339 338 338 338
300 292 288 289 289 291 296 293 297 297 295 296 300 301 307 306 306 307 309 323 328 330 333 335 337 339 338 337 334 331 332 333 333 333 330 329 332 331 330 328 330 335 336 338 337 337 337 334 333
294 288 291 292 291 291 294 292 292 293 292 292 295 301 304 305 304 305 307 310 320 317 321 329 334 337 338 339 339 336 337 335 336 335 333 332 331 330 330 325 325 329 330 333 337 336 334 328 326
294 290 294 293 294 294 293 292 292 290 290 293 293 295 302 300 301 303 302 303 307 307 305 307 315 319 336 336 335 336 337 334 332 334 334 332 332 331 331 328 327 325 322 325 329 330 330 325 324
290 294 293 296 296 294 292 292 291 292 293 295 295 293 298 300 299 299 298 296 299 298 299 298 299 303 305 308 311 311 321 325 331 330 331 331 330 331 331 328 327 325 325 323 325 327 328 325 323
290 291 293 293 294 293 294 291 290 291 294 295 295 295 293 298 297 295 296 295 295 295 296 296 297 297 301 301 301 302 302 303 305 311 324 328 326 327 327 325 325 322 323 323 324 325 325 324 322
291 292 291 292 291 292 290 288 288 290 292 293 293 292 292 293 293 292 293 294 294 296 295 296 297 297 298 298 298 299 299 300 300 301 303 311 324 324 324 324 323 323 323 324 324 323 322 324 324
291 286 288 288 289 289 287 286 286 291 292 291 291 291 292 292 293 293 294 294 294 294 296 296 297 297 297 298 298 298 299 301 300 301 301 303 310 321 322 321 321 322 322 322 321 321 323 321 322
286 285 282 286 287 288 285 284 289 290 290 290 290 290 290 291 293 292 293 293 292 294 295 296 299 297 297 297 297 298 299 299 300 301 302 303 305 305 313 318 320 321 320 320 321 321 320 320 322
283 279 281 285 287 286 284 283 288 289 288 288 289 289 289 289 290 290 292 292 293 294 295 296 297 296 297 297 297 297 298 298 299 299 300 302 304 306 306 312 317 318 318 317 319 321 322 319 320
281 280 282 281 284 285 283 284 288 290 289 290 289 288 287 288 290 290 291 291 292 292 294 295 296 295 296 295 296 296 297 298 298 299 300 302 303 304 304 307 309 314 315 316 315 319 319 319 318
282 280 280 282 285 282 282 283 287 289 287 286 287 287 288 287 288 289 291 291 292 292 292 292 292 292 292 292 293 294 295 297 299 299 302 303 303 304 304 305 306 308 311 314 315 315 315 315 313
282 280 280 283 285 282 281 282 288 288 287 286 287 285 286 287 288 290 291 291 291 289 290 291 291 291 291 291 292 293 293 294 295 297 298 299 299 300 300 300 303 305 307 309 312 313 311 311 309
281 280 279 280 282 283 280 281 285 287 286 287 287 287 287 287 288 290 291 289 288 289 290 291 292 292 292 292 292 292 292 291 292 293 294 296 298 298 298 298 298 299 301 302 307 311 311 308 308
279 282 282 281 277 273 279 274 281 285 286 285 286 285 285 287 288 289 290 288 288 289 289 291 293 293 293 292 291 290 289 289 291 292 293 295 297 297 298 298 298 298 298 298 300 307 309 309 306
280 283 281 281 276 271 274 271 280 284 284 285 284 285 284 286 288 289 289 290 289 290 289 291 291 291 291 291 291 290 290 291 292 293 293 294 295 296 296 297 297 297 297 298 298 298 300 306 307
285 282 281 280 274 268 271 273 278 280 283 285 286 286 287 287 287 288 289 290 289 290 289 289 289 290 291 291 292 292 291 291 292 292 291 292 293 294 295 295 295 295 295 296 296 297 298 299 302
282 278 270 271 270 271 276 271 278 283 283 283 286 286 287 287 287 288 287 289 289 289 289 289 289 289 292 293 292 292 291 290 290 290 290 290 290 290 291 292 292 293 294 294 295 294 295 297 298
279 279 273 268 271 274 276 272 280 284 285 286 287 287 287 288 288 287 288 289 288 288 288 288 289 291 292 291 291 291 290 290 290 290 291 290 290 290 291 291 292 293 293 294 293 293 293 294 295
280 276 281 270 263 269 274 278 284 284 284 285 286 287 287 286 287 286 287 288 288 287 287 290 290 290 290 290 290 290 290 291 290 290 290 290 290 290 290 291 291 292 292 292 293 292 292 293 293
281 282 277 276 269 265 272 273 278 280 281 284 285 286 287 286 287 288 288 288 288 286 290 291 290 289 290 290 290 291 291 291 290 290 289 289 289 289 289 290 291 291 292 291 291 292 292 292 293
278 277 278 280 278 271 269 275 283 282 282 285 286 286 287 287 288 288 288 287 286 288 289 289 288 288 289 290 292 291 289 289 289 289 288 288 288 289 289 289 290 290 291 291 291 291 292 292 292
281 279 279 274 272 273 273 274 285 284 285 288 287 287 288 288 287 287 286 285 285 287 288 288 287 288 289 290 291 290 289 288 288 288 289 289 288 289 289 290 290 290 291 291 290 290 291 291 290
Wind_Speed
8 8 0 4 4 5 4 6 3 1 2 1 2 8 7 5 1 3 0 7 14 14 12 13 16 15 14 13 12 11 11 11 11 10 9 9 8 7 8 8 10 8 7 6 7 8 10 7 6
4 5 4 2 5 2 6 5 1 2 3 3 6 4 6 2 2 5 4 8 14 14 12 11 14 16 15 14 12 11 11 11 11 10 9 10 9 8 9 10 10 10 7 6 7 7 11 9 7
4 1 4 4 3 5 4 1 6 2 1 2 4 6 3 3 2 4 3 11 11 11 12 11 13 15 15 14 13 12 11 11 11 10 9 8 8 7 5 10 9 8 6 5 7 10 10 8 6
2 4 5 4 5 7 3 2 2 3 2 3 3 5 2 1 5 6 6 12 11 10 11 12 14 15 15 14 13 12 11 11 11 11 10 9 8 6 5 5 5 5 6 7 8 11 11 8 8
3 3 4 0 5 5 5 2 4 2 1 0 1 5 2 2 2 5 5 10 11 8 8 11 14 14 14 13 12 12 11 11 10 9 8 9 9 8 8 7 6 6 6 6 9 13 14 12 10
4 3 3 4 5 4 2 4 3 2 1 2 3 6 4 2 4 2 5 7 9 10 8 10 11 11 12 12 12 11 11 11 10 9 9 8 9 10 10 9 8 8 8 7 7 9 12 12 10
6 4 4 4 5 4 3 3 1 2 2 2 1 5 2 2 4 3 6 7 7 8 8 7 8 8 9 10 11 11 11 10 10 9 9 9 10 10 9 10 9 9 9 8 6 8 11 12 12
5 4 2 4 2 5 2 1 3 2 3 5 0 5 5 6 6 4 4 6 8 6 8 8 7 6 6 5 8 9 9 9 9 9 9 9 9 9 9 9 9 10 9 9 8 10 12 12 12
3 4 2 4 3 2 4 1 2 2 2 2 2 3 5 8 5 5 4 3 4 5 7 6 7 8 7 7 7 10 11 12 12 10 10 8 4 5 7 6 8 10 9 10 10 10 10 11 11
5 3 8 3 2 3 3 2 3 3 1 3 4 2 3 6 5 7 6 6 4 4 2 5 6 6 6 4 6 6 6 5 4 6 7 6 6 5 6 6 9 10 10 11 11 10 11 8 4
4 6 4 2 2 2 1 5 3 3 5 8 6 4 4 2 4 7 5 6 6 4 2 3 5 3 5 4 2 2 2 3 2 5 5 5 4 5 5 4 5 6 8 5 7 6 5 5 4
2 6 2 2 2 1 3 2 7 7 8 1 7 1 6 7 7 7 7 6 7 6 5 4 4 4 3 2 2 2 2 3 2 3 5 4 4 4 5 4 6 5 5 6 7 5 7 6 6
4 3 3 2 3 5 2 6 7 11 13 10 9 5 5 8 9 7 7 6 7 6 5 3 4 3 3 3 2 1 1 1 2 3 4 3 3 4 3 4 3 4 3 4 6 7 6 7 7
2 3 7 6 3 3 3 4 2 6 4 5 8 10 9 9 10 5 6 7 7 6 6 5 4 4 4 3 1 1 2 3 3 3 4 5 4 4 4 4 4 4 4 5 7 8 8 9 9
3 6 7 3 3 4 1 7 10 12 6 6 5 5 6 9 9 11 9 8 9 5 7 6 5 5 5 3 2 1 2 3 4 4 5 5 5 5 5 4 4 5 5 6 4 5 6 6 8
3 1 4 0 1 1 2 10 5 5 6 10 9 7 7 7 9 8 7 8 7 7 7 6 5 4 3 2 1 2 3 3 4 4 4 6 6 6 5 4 5 5 4 4 5 5 6 7 7
3 4 4 3 4 2 2 9 7 3 3 8 9 8 8 8 6 6 8 8 8 8 8 6 5 4 2 2 2 3 4 3 4 4 4 7 7 6 4 5 5 5 4 4 5 6 7 7 7
5 4 5 4 2 2 4 18 17 13 11 18 11 9 9 8 11 5 6 6 7 6 6 6 5 4 3 2 3 3 3 4 3 4 4 6 5 7 5 5 6 5 5 5 5 9 6 7 8
2 3 4 3 2 2 5 11 21 9 8 10 11 8 8 8 3 5 6 8 8 6 7 5 7 3 3 3 2 3 3 4 4 4 6 6 5 6 5 4 5 5 7 9 9 7 9 8 5
2 2 5 4 1 1 4 15 22 7 5 3 5 0 5 6 6 7 8 7 5 7 7 7 5 3 3 1 0 1 2 4 4 4 6 7 7 7 6 6 5 5 5 6 8 10 7 6 6
3 4 3 4 5 2 8 9 5 4 1 4 7 4 5 8 9 7 7 7 7 7 6 5 3 4 3 3 2 2 2 3 3 4 4 5 7 7 8 7 5 6 5 7 7 9 12 11 6
3 1 2 2 5 4 4 6 7 5 6 3 5 6 6 6 5 4 5 4 5 3 1 4 5 4 3 4 2 2 2 3 3 4 4 5 6 8 8 9 8 7 6 7 7 7 10 10 12
3 2 3 3 4 5 5 5 9 4 7 4 2 4 4 3 5 5 5 5 4 3 1 2 4 5 5 5 3 3 5 4 4 4 6 6 6 7 8 7 8 8 7 9 10 8 9 9 11
5 4 5 4 3 3 5 5 6 4 5 7 3 4 4 5 5 4 4 5 3 2 2 2 3 3 5 4 5 4 6 7 7 7 6 6 4 5 6 7 6 7 7 8 8 9 10 10 11
3 4 4 6 4 6 1 3 8 6 5 3 6 6 6 6 4 4 3 1 2 1 4 4 5 6 5 5 6 6 7 6 7 7 7 7 6 6 7 6 6 7 8 9 10 9 9 8 10
5 6 6 6 2 3 5 5 1 3 4 4 7 7 7 7 4 2 3 4 2 3 3 4 5 5 6 5 6 5 6 5 6 7 10 8 8 8 9 9 9 10 11 11 12 10 10 11 9
4 3 4 8 1 4 3 5 3 4 3 7 7 6 4 3 1 2 4 2 3 3 2 2 4 5 6 7 6 6 6 10 11 12 10 9 11 9 11 10 11 11 12 12 13 11 12 12 10
2 3 3 3 1 3 5 5 6 6 5 4 5 7 4 5 6 6 5 4 3 1 1 3 4 6 6 6 5 8 10 10 10 11 12 12 12 11 11 11 11 11 12 13 13 12 13 13 11
1 1 1 2 4 5 2 7 5 9 8 5 7 5 5 5 7 7 5 4 3 2 3 5 6 6 6 6 7 9 9 10 12 11 11 12 12 12 12 12 13 13 14 15 14 15 15 15 13
2 4 5 5 5 2 3 8 4 8 7 6 4 4 5 6 7 6 7 6 6 6 6 6 6 6 6 6 7 11 10 10 11 11 12 15 13 12 13 13 13 14 15 16 16 17 15 14 14
Wind_Direction
323 310 244 34 55 63 269 263 283 104 51 268 16 105 114 73 114 201 208 155 142 156 162 162 160 161 159 157 154 152 161 162 159 159 158 159 166 176 181 181 173 168 172 191 158 165 152 150 153
326 321 43 82 92 73 266 260 57 270 211 139 107 98 52 83 101 149 125 159 149 154 160 166 162 164 163 163 160 156 156 160 164 168 174 175 179 198 212 196 181 180 165 190 200 176 167 155 190
304 221 85 100 120 192 219 273 182 201 6 69 81 57 88 126 92 154 211 142 138 153 162 166 165 165 166 166 166 167 167 165 168 170 180 187 197 203 240 209 197 190 175 220 232 159 169 144 184
33 18 28 97 231 255 234 198 218 137 10 52 118 69 55 286 162 180 172 139 136 157 165 164 169 169 169 170 173 174 175 176 177 180 184 186 190 169 142 133 168 160 189 243 267 192 162 179 199
23 61 73 99 255 263 277 194 219 149 126 82 87 182 123 5 75 142 134 142 150 157 166 169 171 174 175 177 179 180 183 186 186 190 196 195 190 188 183 177 183 196 220 245 273 207 160 167 190
44 91 82 221 245 254 290 326 294 110 29 13 70 121 201 332 112 197 140 155 148 160 160 171 179 176 177 181 185 188 192 194 194 198 203 199 200 199 198 194 198 209 222 233 260 198 168 167 190
116 96 204 220 252 298 224 321 52 298 100 259 155 138 263 261 200 129 169 129 135 137 142 155 173 186 186 185 188 195 201 201 199 204 209 210 203 206 202 202 207 221 228 225 232 198 185 182 187
108 96 222 251 226 254 256 314 182 215 244 320 129 191 225 221 217 115 120 118 133 142 144 156 168 172 180 185 198 201 207 211 212 216 220 219 218 219 222 221 227 227 231 234 226 215 204 195 189
81 70 233 244 223 264 334 311 323 290 305 348 271 166 215 165 160 123 106 79 102 149 162 170 172 170 177 185 195 207 208 212 213 216 221 220 221 228 231 228 226 234 238 236 240 230 224 204 201
101 144 220 213 161 209 310 34 322 314 296 273 289 14 126 153 164 162 165 157 162 157 177 162 156 172 180 196 192 207 208 213 217 223 217 209 209 212 219 221 230 237 238 238 241 240 228 220 213
176 206 224 220 189 170 234 299 321 253 253 228 206 196 211 182 174 177 185 186 192 165 116 95 91 61 148 145 129 180 208 198 228 244 229 232 223 222 221 221 227 227 235 230 228 241 233 213 203
204 251 289 262 212 237 259 279 297 220 226 167 176 358 177 196 211 201 190 181 156 147 149 115 92 99 91 87 96 76 32 3 298 269 251 217 217 232 240 234 233 230 221 218 225 222 218 210 209
210 270 307 329 249 260 297 251 244 262 256 259 253 242 213 206 197 210 207 167 157 150 152 132 125 109 106 95 71 69 13 332 324 334 300 252 238 233 218 232 227 224 218 215 225 226 221 217 213
330 297 277 286 261 236 262 276 37 274 284 266 232 239 216 204 208 197 173 174 171 161 155 151 123 116 120 133 164 255 308 293 290 280 273 291 241 237 226 230 228 228 214 224 224 218 221 222 218
334 317 313 230 248 222 75 278 231 249 296 299 275 254 232 216 203 207 198 181 171 164 139 142 136 125 122 146 179 212 258 289 282 274 270 263 259 244 234 230 231 226 222 227 230 232 224 237 233
342 46 328 36 79 38 39 270 272 287 184 248 258 260 255 245 216 208 199 175 175 136 147 153 135 134 138 161 247 280 279 277 274 279 286 282 263 253 261 242 238 239 229 216 225 230 235 230 230
355 251 223 290 62 345 165 279 279 327 220 257 256 248 247 256 250 225 190 169 165 149 143 135 133 135 114 4 324 294 289 281 281 290 281 277 281 278 238 239 242 236 229 222 223 232 235 243 239
204 230 251 252 358 9 255 269 271 269 263 267 264 245 247 235 236 204 165 169 137 137 138 130 102 71 40 3 328 312 315 295 281 270 266 277 277 279 279 266 253 238 227 233 222 235 233 235 238
163 213 245 275 101 297 249 275 282 292 254 277 270 253 239 232 251 184 147 130 113 92 97 90 99 63 57 22 354 357 318 309 308 312 303 307 303 300 293 271 263 253 242 235 226 227 232 241 217
181 184 268 286 93 1 347 287 276 288 257 271 304 41 141 106 86 96 110 96 92 120 116 114 124 81 47 57 355 242 283 291 281 299 313 317 314 306 300 287 278 269 260 255 243 229 236 232 192
219 193 217 211 331 30 330 293 316 315 6 42 34 77 96 133 127 118 116 137 146 139 149 139 80 39 21 358 343 337 325 321 328 311 303 299 311 309 305 294 269 269 260 266 253 254 242 249 222
225 170 95 70 59 239 11 275 313 331 332 57 71 90 117 124 123 141 128 117 146 158 79 39 20 6 349 356 358 312 255 270 249 270 274 288 290 288 285 283 284 281 273 268 256 252 255 253 249
199 99 106 90 92 63 333 86 269 338 356 11 109 102 123 129 140 136 133 151 183 141 87 35 358 345 343 343 320 287 275 260 272 276 279 274 275 272 279 285 291 288 284 280 271 261 253 252 255
137 85 47 59 93 30 239 131 299 359 320 311 80 120 103 83 109 132 128 131 140 127 56 13 348 326 326 332 329 315 298 293 301 297 291 288 276 269 266 273 280 287 291 288 285 275 261 253 255
112 79 332 347 9 220 66 52 240 302 319 310 99 65 83 116 136 154 164 251 277 12 10 353 357 329 346 347 319 302 291 286 285 298 298 298 292 291 284 273 271 269 274 281 282 282 286 278 257
174 160 162 213 194 255 355 249 306 311 321 90 102 125 129 153 168 203 252 272 296 342 342 351 350 332 321 308 297 287 285 294 292 292 300 294 292 287 282 277 274 276 278 279 278 274 273 264 268
175 196 139 105 66 54 249 278 327 5 76 74 88 91 88 84 175 256 335 29 303 302 360 43 324 309 306 301 296 301 297 314 307 303 299 292 293 283 278 276 277 278 275 271 274 272 272 274 260
182 157 86 4 173 265 285 275 199 200 149 123 106 83 21 301 308 311 301 303 320 20 223 295 317 299 294 286 297 315 309 306 304 298 292 290 288 284 282 282 283 285 281 277 272 269 265 261 256
48 236 146 119 154 177 210 261 214 174 171 130 87 77 340 323 288 297 308 309 311 270 298 312 309 304 299 288 314 316 309 304 305 294 293 286 287 287 284 286 289 289 284 277 271 266 264 262 266
231 222 167 136 239 226 144 270 228 171 176 103 112 259 262 279 310 325 326 322 312 304 302 295 286 301 298 287 307 315 298 297 298 294 292 300 294 290 286 288 289 286 279 271 265 262 259 257 261